Regional Weather Roundup
Issued by NWS Sioux Falls, SD

Home | Current Version | Previous Version | Graphics & Text | Print | Product List | Glossary On
Versions: 1 2 3 4 5 6 7 8 9 10 11 12 13 14 15 16 17 18 19 20 21 22 23 24 25 26 27 28 29 30 31 32 33 34 35 36 37 38 39 40 41 42 43 44 45 46 47 48 49 50
000
ASUS43 KFSD 180202
RWRFSD

WEATHER ROUNDUP FOR SE SOUTH DAKOTA/SW MINNESOTA/NW IOWA
NATIONAL WEATHER SERVICE SIOUX FALLS SD
900 PM CDT TUE OCT 17 2017

NOTE: "FAIR" INDICATES FEW OR NO CLOUDS BELOW 12,000 FEET WITH NO
SIGNIFICANT WEATHER AND OR OBSTRUCTIONS TO VISIBILITY.


SDZ038>040-050-052>070-180300-
SOUTHEAST SOUTH DAKOTA

CITY           SKY/WX    TMP DP  RH WIND       PRES   REMARKS
BROOKINGS      CLEAR     60  39  45 S9        29.89F
CHAMBERLAIN    NOT AVBL
HURON          CLEAR     64  40  41 S13       29.83F
MADISON        FAIR      57  37  47 S7        29.90F
MITCHELL       CLEAR     62  42  47 S13       29.86F
SIOUX FALLS    CLEAR     64  45  49 S13       29.90F
WINNER         FAIR      64  35  34 S14       29.85F
YANKTON        CLEAR     60  40  47 S8        29.92S
$$

MNZ071-072-080-081-089-090-097-098-180300-
SOUTHWEST MINNESOTA

CITY           SKY/WX    TMP DP  RH WIND       PRES   REMARKS
FAIRMONT       CLEAR     55  45  68 S9        29.95F
JACKSON        CLEAR     57  41  54 S8        29.95F
MARSHALL       CLEAR     58  41  53 S9        29.88F
MONTEVIDEO     CLEAR     61  39  44 SW7       29.86S
PIPESTONE      CLEAR     55  39  54 S6        29.91F
REDWOOD FALLS  CLEAR     59  39  47 S9        29.88F
TRACY          CLEAR     63  40  43 S13       29.90F
WORTHINGTON    CLEAR     59  40  49 S9        29.95S
$$

IAZ001>003-012>014-020>022-031-032-NEZ013-014-SDZ071-180300-
NORTHWEST IOWA

CITY           SKY/WX    TMP DP  RH WIND       PRES   REMARKS
CHEROKEE       CLEAR     51  46  82 S5        29.98S
DENISON        CLEAR     55  45  67 S7        30.01S
ESTHERVILLE    CLEAR     52  46  80 S8        29.96S
LE MARS        CLEAR     57  46  67 S6        29.95F HAZE
ORANGE CITY    CLEAR     59  48  67 S7        29.96S
SHELDON        CLEAR     57  45  62 S7G14     29.94S
SIOUX CITY     CLEAR     52  46  80 SE7       29.96F
SPENCER        CLEAR     55  44  66 S8        29.96S
STORM LAKE     CLEAR     54  45  71 S8        29.99S
$$

ABBREVIATIONS USED IN REMARKS
   TC - TEMPERATURE IN CELSIUS
  WCI - WIND CHILL INDEX
   HX - HEAT INDEX
  VSB - VISIBILITY





USA.gov is the U.S. government's official web portal to all federal, state and local government web resources and services.